User: anonymous   Login
Location: Unspecified
(0.0000°N, 0.0000°E)
Time: 18:07:38
(UTC+00:00)
Language:

STARLINK-32310 - Orbit

View from above orbital plane
View from above orbital plane
View from above satellite
View from above satellite

Ground track
Ground track

The orbit is defined by the following mean orbital elements,

1 61662U          26145.26835242 +.00000000 +00000-0 +11595-4 0 00009
2 61662  53.1614  95.1333 0001300  87.6339 272.4811 15.31704155    04
Epoch (UTC): 25 May 2026 06:26:25
Eccentricity: 0.0001300
inclination: 53.1614°
perigee height: 470 km
apogee height: 472 km
right ascension of ascending node: 95.1333°
argument of perigee: 87.6339°
revolutions per day: 15.31704155
mean anomaly at epoch: 272.4811°

The dashed part of the orbit path shows where the satellite is in the earth's shadow,  

DLR